Date,TemperatureHighF,TemperatureAvgF,TemperatureLowF,DewpointHighF,DewpointAvgF,DewpointLowF,HumidityHigh,HumidityAvg,HumidityLow,PressureMaxIn,PressureMinIn,WindSpeedMaxMPH,WindSpeedAvgMPH,GustSpeedMaxMPH,PrecipitationSumIn
2013-1-1,12.9,6.2,-2.1,9.3,1.2,-5.3,88,80,66,30.31,30.20,11,2,11,0.00
2013-1-2,19.9,15.0,9.6,14.4,10.2,4.9,92,82,60,30.21,30.08,14,2,14,0.00
2013-1-3,22.5,17.0,7.1,19.6,14.5,3.8,93,90,82,30.26,30.09,9,2,9,0.00
2013-1-4,28.1,19.7,8.5,19.4,14.8,5.4,93,81,68,30.23,30.11,15,3,15,0.01
2013-1-5,31.3,24.8,15.7,29.9,22.2,14.0,95,90,76,30.24,29.90,15,4,15,0.01
2013-1-6,28.5,20.8,14.3,25.4,17.7,10.4,99,88,82,30.29,29.89,14,2,14,0.00
2013-1-7,34.4,24.6,13.3,25.4,19.5,9.9,89,81,65,30.28,30.04,23,5,23,0.00
2013-1-8,35.5,30.4,24.4,30.7,26.8,22.3,100,87,77,30.10,29.91,21,4,21,0.00
2013-1-9,37.6,32.1,28.2,31.1,24.9,19.3,92,75,58,30.46,29.91,19,4,19,0.03
2013-1-10,35.0,32.0,27.5,32.2,25.9,20.4,97,79,62,30.50,29.84,19,5,19,0.35
2013-1-11,44.1,38.2,32.9,43.8,37.8,32.1,99,98,97,29.85,29.58,24,4,24,0.04
2013-1-12,45.0,29.6,17.3,44.0,25.6,12.7,99,85,71,30.01,29.58,30,4,30,0.04
2013-1-13,18.0,11.7,7.4,14.0,7.2,3.3,89,82,74,30.25,29.90,15,2,15,0.00
2013-1-14,21.7,12.1,2.3,12.4,6.8,-0.4,90,79,66,30.48,30.25,10,0,10,0.00
2013-1-15,26.5,18.9,13.2,15.6,12.3,9.5,87,76,59,30.46,30.07,13,3,13,0.00
2013-1-16,31.1,22.9,13.8,29.3,19.2,9.4,93,86,77,30.11,29.79,23,4,23,0.00
2013-1-17,23.3,16.3,11.0,17.5,8.2,3.4,86,70,54,30.42,30.10,18,2,18,0.00
2013-1-18,41.1,27.5,11.6,32.6,22.5,7.4,91,82,68,30.43,29.84,23,4,23,0.00
2013-1-19,43.4,32.8,8.7,34.3,26.2,0.7,91,77,44,29.95,29.64,20,4,20,0.00
2013-1-20,12.3,6.5,2.2,1.4,-1.0,-3.1,84,71,58,30.32,29.96,16,2,16,0.00
2013-1-21,5.5,-1.8,-7.5,2.0,-7.5,-12.0,92,76,66,30.35,30.17,13,2,13,0.00
2013-1-22,5.5,-2.8,-10.6,-3.1,-8.6,-14.3,84,76,65,30.44,30.33,8,1,8,0.00
2013-1-23,14.6,7.1,-1.7,11.9,2.7,-7.5,97,82,73,30.50,30.14,18,2,18,0.00
2013-1-24,10.5,1.9,-6.4,6.0,-3.9,-10.3,84,76,62,30.70,30.39,13,3,13,0.00
2013-1-25,21.0,14.5,8.0,15.6,10.8,4.1,92,85,75,30.39,29.97,14,2,14,0.00
2013-1-26,22.0,13.3,2.9,13.2,6.6,-0.1,88,75,57,30.43,30.24,16,2,16,0.03
2013-1-27,30.2,24.5,19.0,29.5,21.0,12.9,97,87,73,30.35,29.86,19,5,19,0.03
2013-1-28,36.4,32.4,30.2,35.9,31.7,29.5,98,97,96,29.95,29.74,16,2,16,0.26
2013-1-29,49.7,38.8,31.6,49.4,38.4,31.4,100,99,97,29.76,29.49,18,3,18,0.38
2013-1-30,31.6,22.6,10.7,31.4,21.8,9.0,100,96,93,29.63,29.34,21,4,21,0.38
2013-1-31,10.8,5.1,-4.0,9.1,3.0,-6.7,93,91,88,30.19,29.63,14,1,14,0.00
2013-2-1,1.1,-3.8,-10.7,-1.4,-6.6,-13.8,90,87,86,30.37,30.19,11,2,11,0.00
2013-2-2,9.3,4.5,1.0,7.1,2.2,-1.5,100,90,89,30.19,30.06,11,1,11,0.00
2013-2-3,15.8,10.5,3.1,13.2,8.3,0.7,100,91,88,30.07,29.98,12,0,12,0.01
2013-2-4,16.8,11.2,8.0,12.7,8.3,5.0,93,88,82,30.04,29.95,10,1,10,0.01
2013-2-5,25.2,17.2,8.0,25.2,15.3,5.1,100,92,87,30.14,29.79,20,3,20,0.00
2013-2-6,30.2,20.4,12.6,28.8,18.2,10.7,96,91,86,30.22,30.07,13,2,13,0.00
2013-2-7,31.5,27.8,19.8,31.0,27.1,18.5,98,97,95,30.12,29.95,11,2,11,0.00
2013-2-8,24.7,18.6,12.7,20.8,16.3,10.7,95,90,82,30.41,30.12,9,0,9,0.02
2013-2-9,25.3,18.7,10.1,24.3,17.4,8.4,96,95,92,30.41,30.08,18,4,18,0.02
2013-2-10,39.6,31.1,23.1,39.2,30.5,22.1,100,98,96,30.09,29.37,23,5,23,0.01
2013-2-11,33.0,26.3,20.8,32.8,24.6,18.3,99,93,87,30.00,29.36,24,4,24,0.01
2013-2-12,28.7,21.7,16.7,22.9,18.2,14.3,92,86,75,30.10,29.88,14,3,14,0.00
2013-2-13,37.6,29.9,23.4,29.7,25.6,21.3,94,84,65,29.88,29.66,10,2,10,0.05
2013-2-14,33.2,29.6,21.4,31.7,26.0,17.9,96,87,73,30.02,29.56,19,2,19,0.01
2013-2-15,23.4,14.9,6.3,18.0,7.1,0.5,86,72,52,30.24,30.02,16,2,16,0.01
2013-2-16,16.6,9.1,5.2,4.4,0.8,-2.9,92,69,53,30.25,30.18,13,1,13,0.00
2013-2-17,23.1,14.1,4.0,18.4,5.6,-3.6,82,69,58,30.23,29.93,20,3,20,0.00
2013-2-18,41.7,30.3,17.8,34.2,26.2,16.0,96,85,72,29.94,29.49,19,4,19,0.02
2013-2-19,17.7,8.9,2.6,16.0,5.2,-3.0,93,85,77,30.24,29.55,19,3,19,0.02
2013-2-20,20.9,10.7,0.2,11.1,4.0,-4.1,85,75,61,30.45,30.24,18,3,18,0.03
2013-2-21,21.3,14.3,6.7,20.1,11.7,3.1,95,89,76,30.48,30.10,23,5,23,0.03
2013-2-22,26.2,22.7,19.5,25.2,21.5,18.1,96,95,94,30.10,29.82,21,2,21,0.00
2013-2-23,28.0,22.5,19.0,24.7,19.9,16.3,94,90,83,29.96,29.85,9,1,9,0.01
2013-2-24,35.7,25.5,16.0,26.2,19.7,14.1,93,79,59,30.15,29.96,9,1,9,0.04
2013-2-25,37.6,29.1,23.0,27.9,23.3,18.0,85,79,66,30.17,30.05,12,1,12,0.04
2013-2-26,31.3,27.7,25.2,26.1,24.5,21.8,96,88,76,30.06,29.70,30,8,30,0.00
2013-2-27,29.7,27.5,25.2,29.0,26.6,24.1,97,96,95,29.85,29.68,17,4,17,0.00
2013-2-28,30.3,27.2,21.3,28.2,25.0,17.9,97,91,86,30.16,29.84,12,4,17,0.00
2013-3-1,24.8,20.9,17.3,19.1,16.7,13.1,93,84,76,30.29,30.16,15,2,15,0.00
2013-3-2,27.2,18.2,8.5,15.9,9.2,4.7,87,69,47,30.30,30.20,11,2,11,0.12
2013-3-3,30.2,20.1,11.9,12.8,7.7,0.6,78,59,40,30.20,30.11,10,1,10,0.08
2013-3-4,27.2,21.2,14.9,23.5,15.7,1.6,91,79,50,30.14,30.06,19,5,19,0.08
2013-3-5,24.9,23.6,22.0,23.6,22.2,20.7,96,94,91,30.16,29.93,17,5,17,0.00
2013-3-6,30.0,23.8,19.3,27.5,21.9,16.0,96,92,87,30.36,30.16,17,2,17,0.06
2013-3-7,32.9,23.4,14.1,24.3,18.1,11.7,91,81,67,30.45,30.34,9,2,9,0.13
2013-3-8,35.2,26.6,18.8,27.9,22.6,16.3,95,85,70,30.47,30.28,18,5,18,0.01
2013-3-9,36.7,32.4,27.0,36.0,30.0,23.5,98,91,82,30.28,29.79,22,5,22,0.50
2013-3-10,38.2,34.9,30.4,37.9,34.5,29.9,99,98,98,29.81,29.64,27,4,27,0.31
2013-3-11,31.2,28.9,24.6,30.9,28.4,23.4,100,98,95,29.78,29.57,1,0,1,0.04
2013-3-12,29.7,24.2,20.7,24.9,21.7,17.1,96,90,80,30.06,29.78,0,0,0,0.02
2013-3-13,30.8,21.8,14.1,18.1,12.7,9.5,91,70,46,30.35,30.06,10,0,10,0.02
2013-3-14,33.7,24.5,17.8,27.1,19.3,11.0,94,81,63,30.34,30.07,13,2,13,0.02
2013-3-15,32.7,29.8,25.5,30.9,28.3,23.8,97,94,91,30.08,29.82,18,3,18,0.07
2013-3-16,28.9,22.2,16.7,24.1,18.9,13.9,95,87,73,30.18,29.83,19,3,19,0.03
2013-3-17,25.7,18.8,11.1,18.6,12.5,5.5,88,76,68,30.30,30.03,18,5,18,0.03
2013-3-18,29.2,22.3,12.3,28.1,20.4,8.5,96,92,85,30.04,29.60,17,4,17,0.00
2013-3-19,27.1,16.1,7.7,12.8,8.3,4.6,88,72,49,30.10,29.72,17,4,17,0.05
2013-3-20,19.7,11.1,3.4,8.8,2.9,-3.2,84,69,59,30.13,30.06,13,3,13,0.05
2013-3-21,26.9,16.2,5.3,12.8,6.9,0.7,82,67,51,30.12,30.06,14,2,14,0.03
2013-3-22,33.9,23.4,13.5,16.2,11.5,7.0,83,61,41,30.11,30.06,8,1,8,0.02
2013-3-23,36.8,28.7,21.8,20.6,17.5,12.5,78,63,49,30.16,30.08,11,1,12,0.02
2013-3-24,29.2,26.4,24.5,26.3,22.9,20.1,95,87,78,30.10,29.84,20,4,20,0.01
2013-3-25,31.9,27.3,20.7,25.3,21.5,17.3,88,79,71,30.15,29.88,16,3,16,0.01
2013-3-26,40.0,31.4,25.8,28.9,23.6,20.2,82,73,57,30.29,30.14,14,1,14,0.00
2013-3-27,41.2,33.7,29.7,26.0,22.7,18.9,80,65,45,30.34,30.28,8,0,8,0.00
2013-3-28,44.6,35.7,27.8,23.9,19.5,17.6,68,53,36,30.37,30.29,9,1,9,0.00
2013-3-29,46.7,39.3,31.5,24.9,21.2,17.6,62,49,35,30.34,30.22,8,1,8,0.00
2013-3-30,50.4,40.2,33.9,39.9,32.1,23.0,97,73,57,30.22,29.82,19,3,19,0.03
2013-3-31,41.2,34.8,27.2,36.9,31.1,19.0,98,87,67,29.93,29.73,12,1,12,0.03
2013-4-1,32.9,26.3,19.8,18.8,15.2,11.0,75,63,48,30.22,29.93,15,2,15,0.00
2013-4-2,37.1,27.6,19.3,19.3,15.6,12.5,81,62,40,30.36,30.22,13,1,13,0.00
2013-4-3,41.7,32.2,22.8,20.4,14.9,8.3,69,50,30,30.49,30.27,13,2,13,0.00
2013-4-4,53.2,40.1,29.4,36.7,26.7,19.4,74,59,42,30.28,29.99,19,4,19,0.00
2013-4-5,43.2,36.2,28.8,28.5,23.6,20.8,77,61,44,30.25,30.07,20,3,20,0.00
2013-4-6,56.4,42.0,30.2,46.9,33.3,19.2,95,72,53,30.12,29.55,20,5,20,0.07
2013-4-7,49.7,40.5,32.9,42.0,34.4,30.5,95,80,59,29.95,29.58,15,2,15,0.07
2013-4-8,58.3,42.2,34.2,48.6,38.8,31.3,97,88,69,30.00,29.65,16,3,16,0.28
2013-4-9,37.3,34.8,30.6,36.3,34.3,29.8,98,98,96,30.11,29.88,26,7,26,0.86
2013-4-10,31.6,30.4,28.9,31.1,29.8,28.2,98,98,97,30.15,29.88,9,0,9,1.34
2013-4-11,34.2,32.3,31.3,33.6,31.8,30.6,98,98,97,29.94,29.61,0,0,0,0.12
2013-4-12,35.1,31.7,30.2,34.7,31.0,27.8,100,97,91,29.81,29.55,0,0,0,0.14
2013-4-13,34.4,31.1,28.7,28.6,27.0,24.4,95,85,76,30.01,29.79,0,0,0,0.04
2013-4-14,46.0,34.5,28.5,43.1,31.6,23.9,98,89,74,30.02,29.60,0,0,0,0.07
2013-4-15,56.4,43.7,36.1,47.0,39.2,30.1,99,85,53,29.97,29.63,0,0,0,0.08
2013-4-16,50.9,39.7,29.9,35.0,30.5,27.3,91,71,46,30.31,29.96,0,0,0,0.08
2013-4-17,38.9,36.4,34.6,37.8,33.2,29.4,98,89,70,30.33,29.88,0,0,0,0.68
2013-4-18,51.4,40.8,33.0,51.0,40.5,32.5,99,99,98,29.88,29.31,0,0,0,0.14
2013-4-19,35.6,31.3,26.5,32.5,28.1,20.9,98,88,75,29.94,29.32,0,0,0,0.02
2013-4-20,43.8,33.2,22.7,22.0,17.8,11.9,87,57,31,30.40,29.94,0,0,0,0.02
2013-4-21,48.6,38.6,30.0,36.3,28.8,18.0,87,69,47,30.49,30.25,0,0,0,0.00
2013-4-22,62.9,51.1,41.6,41.1,37.8,34.9,81,62,39,30.25,29.96,0,0,0,0.01
2013-4-23,53.5,39.7,33.4,45.3,34.1,26.5,93,81,63,30.01,29.84,0,0,0,0.00
2013-4-24,53.3,40.2,28.9,33.4,25.7,20.3,86,59,33,30.06,29.98,0,0,0,0.00
2013-4-25,48.6,41.1,34.2,36.4,30.9,25.6,93,69,44,30.28,29.97,0,0,0,0.01
2013-4-26,68.7,53.5,38.9,47.1,36.5,22.6,77,53,40,30.27,30.11,0,0,0,0.01
2013-4-27,62.1,54.9,45.5,49.2,45.8,43.3,93,73,55,30.20,29.98,0,0,0,0.00
2013-4-28,70.7,60.3,50.1,46.7,43.1,38.5,75,54,37,29.99,29.76,0,0,0,0.00
2013-4-29,66.5,59.3,54.5,56.9,51.7,46.4,89,76,59,29.80,29.66,0,0,0,0.03
2013-4-30,86.4,71.1,58.4,61.1,54.0,47.4,95,61,29,29.85,29.62,0,0,0,0.35
2013-5-1,75.6,60.1,44.0,52.9,46.7,37.3,81,63,43,30.20,29.85,0,0,0,0.00
2013-5-2,45.9,39.0,31.7,37.8,34.3,30.3,95,84,71,30.29,30.19,0,0,0,0.06
2013-5-3,43.8,35.9,31.0,43.5,35.2,30.0,99,97,95,30.25,30.05,0,0,0,0.37
2013-5-4,67.6,55.4,43.6,55.4,48.1,42.8,99,79,53,30.09,30.01,0,0,0,0.37
2013-5-5,71.3,60.7,47.3,49.4,45.7,40.4,91,59,42,30.05,29.99,0,0,0,0.00
2013-5-6,73.9,63.9,52.6,44.2,40.5,36.1,66,43,29,30.06,29.98,0,0,0,0.00
2013-5-7,76.7,69.6,56.9,45.2,38.3,33.7,53,33,23,30.01,29.95,0,0,0,0.00
2013-5-8,78.3,69.2,58.2,49.2,43.9,39.8,60,42,26,29.99,29.91,0,0,0,0.00
2013-5-9,67.2,57.6,43.8,56.7,51.5,43.0,97,82,48,29.92,29.83,0,0,0,1.11
2013-5-10,51.9,43.9,37.4,47.8,42.3,36.8,99,94,83,30.00,29.87,0,0,0,1.67
2013-5-11,53.4,46.2,38.6,47.2,37.3,26.8,98,73,41,30.05,29.80,0,0,0,0.01
2013-5-12,55.2,43.5,32.2,31.4,25.5,20.1,79,52,30,30.13,30.04,0,0,0,0.00
2013-5-13,63.7,50.3,34.1,36.3,29.4,22.0,79,48,25,30.17,29.87,0,0,0,0.00
2013-5-14,87.5,71.6,53.7,60.6,48.3,35.9,70,46,24,29.87,29.51,0,0,0,0.00
2013-5-15,76.5,68.3,60.8,60.2,45.3,37.6,62,45,27,29.82,29.52,0,0,0,0.00
2013-5-16,83.0,68.7,57.7,50.6,45.8,36.0,62,46,27,29.94,29.82,0,0,0,0.00
2013-5-17,57.5,52.2,45.1,51.9,44.5,31.4,98,78,39,30.07,29.92,0,0,0,0.45
2013-5-18,77.0,63.5,50.6,64.8,56.5,45.8,89,78,61,30.05,29.89,0,0,0,0.45
2013-5-19,82.8,70.1,59.9,66.0,61.3,55.3,94,75,50,29.90,29.59,0,0,0,0.01
2013-5-20,79.7,69.0,59.1,63.3,60.5,56.7,98,76,52,29.76,29.56,0,0,0,0.29
2013-5-21,72.7,65.8,60.6,62.6,58.4,54.8,92,78,62,29.67,29.55,0,0,0,0.00
2013-5-22,66.7,60.2,50.9,60.3,56.3,49.8,97,87,77,29.78,29.59,0,0,0,0.01
2013-5-23,60.7,51.6,44.3,49.9,42.1,30.5,98,74,35,30.30,29.78,0,0,0,0.10
2013-5-24,61.5,50.7,38.0,43.4,38.1,32.8,92,64,40,30.45,30.30,0,0,0,0.00
2013-5-25,57.5,50.6,44.0,43.2,39.7,34.8,85,67,49,30.37,30.28,0,0,0,0.00
2013-5-26,63.6,52.0,44.5,50.2,41.8,32.1,93,69,47,30.30,30.14,0,0,0,0.13
2013-5-27,51.9,50.2,48.3,51.2,47.5,41.9,99,91,72,30.14,29.88,0,0,0,0.07
2013-5-28,67.3,56.5,48.3,66.0,55.9,47.8,99,98,92,29.88,29.70,0,0,0,0.01
2013-5-29,81.0,67.7,58.8,68.9,62.9,58.2,99,86,62,29.87,29.76,0,0,0,0.76
2013-5-30,79.9,68.9,60.3,69.9,65.0,58.7,98,88,67,29.85,29.64,0,0,0,0.20
2013-5-31,76.9,66.0,60.1,65.0,61.3,58.5,96,86,59,29.73,29.64,0,0,0,0.21
2013-6-1,77.2,66.2,57.3,64.3,58.3,50.9,97,77,51,29.68,29.59,0,0,0,0.01
2013-6-2,61.2,52.0,43.7,56.7,43.9,39.4,94,75,54,30.03,29.68,0,0,0,0.03
2013-6-3,68.1,58.8,47.1,47.1,42.6,39.3,79,57,39,30.10,30.00,0,0,0,0.00
2013-6-4,64.1,57.2,47.9,54.9,49.3,43.1,96,76,58,30.14,30.05,0,0,0,0.34
2013-6-5,56.3,51.7,47.6,55.3,50.5,46.5,98,96,94,30.11,29.94,0,0,0,0.34
2013-6-6,55.9,52.1,48.7,54.7,51.0,47.9,99,96,92,29.98,29.92,0,0,0,0.58
2013-6-7,68.6,57.9,48.3,54.9,50.8,45.8,97,78,56,30.00,29.92,0,0,0,0.00
2013-6-8,69.5,61.4,55.1,52.4,48.9,42.9,79,64,48,29.98,29.91,0,0,0,0.00
2013-6-9,74.6,61.8,53.4,63.1,55.9,47.6,97,82,56,29.98,29.78,0,0,0,0.73
2013-6-10,79.7,68.4,58.2,67.0,62.3,57.4,98,82,57,29.83,29.75,0,0,0,0.74
2013-6-11,80.8,70.5,59.0,68.3,63.3,56.9,94,79,61,29.88,29.76,0,0,0,0.00
2013-6-12,71.5,65.8,57.0,67.9,63.2,56.4,98,92,83,29.89,29.60,0,0,0,1.47
2013-6-13,76.6,66.0,56.5,62.8,57.1,53.8,98,75,51,30.04,29.74,0,0,0,1.47
2013-6-14,76.1,65.9,55.8,60.2,55.8,49.8,90,71,52,30.13,29.95,0,0,0,0.00
2013-6-15,80.0,67.0,56.8,69.9,62.5,55.0,97,86,66,30.03,29.79,0,0,0,0.03
2013-6-16,82.9,71.3,60.4,65.8,58.1,50.9,97,67,37,29.88,29.82,0,0,0,0.03
2013-6-17,84.0,72.1,60.1,64.4,57.2,49.8,87,61,40,29.93,29.84,0,0,0,0.01
2013-6-18,70.8,61.0,52.6,56.9,52.1,45.7,94,74,53,30.08,29.92,0,0,0,0.01
2013-6-19,78.2,65.7,52.3,55.6,50.0,40.3,79,58,40,30.13,30.03,0,0,0,0.00
2013-6-20,85.7,72.7,59.6,63.7,57.1,48.5,79,60,38,30.11,30.00,0,0,0,0.00
2013-6-21,75.1,68.5,62.5,68.9,64.4,61.4,97,87,77,30.03,29.82,0,0,0,1.19
2013-6-22,77.5,68.4,63.6,70.9,66.1,62.7,98,93,78,30.08,29.86,0,0,0,2.42
2013-6-23,82.8,71.7,61.5,73.9,67.4,60.8,98,87,67,30.03,29.82,0,0,0,0.02
2013-6-24,77.3,69.9,65.7,69.6,66.3,64.4,97,89,73,29.97,29.80,0,0,0,0.01
2013-6-25,81.0,70.0,63.2,73.8,67.9,62.6,99,93,76,29.89,29.74,0,0,0,0.09
2013-6-26,81.8,72.5,64.1,72.1,68.7,63.3,98,89,70,29.76,29.67,0,0,0,1.00
2013-6-27,84.7,74.9,68.7,74.8,67.5,59.1,97,79,59,29.77,29.66,0,0,0,0.03
2013-6-28,74.2,66.5,61.9,66.1,61.5,57.4,100,85,66,29.71,29.61,0,0,0,0.29
2013-6-29,68.1,62.5,59.5,62.6,60.4,57.3,99,93,78,29.85,29.62,0,0,0,0.27
2013-6-30,75.7,65.3,55.2,60.3,53.3,48.5,95,67,46,30.05,29.85,0,0,0,0.27
2013-7-1,77.3,67.9,57.4,58.5,52.8,48.8,80,60,43,30.12,30.05,0,0,0,0.00
2013-7-2,73.8,65.1,57.2,58.0,51.2,41.4,86,62,37,30.10,30.05,0,0,0,0.00
2013-7-3,69.1,61.9,55.4,61.8,54.4,44.6,92,77,65,30.08,30.01,0,0,0,0.00
2013-7-4,82.0,70.0,58.3,63.1,59.7,56.6,96,72,46,30.06,29.98,0,0,0,0.00
2013-7-5,83.3,73.3,62.6,67.2,63.1,59.7,92,72,49,30.02,29.95,0,0,0,0.00
2013-7-6,85.4,74.5,64.7,68.1,64.2,60.6,88,71,52,29.99,29.91,0,0,0,0.00
2013-7-7,86.5,76.1,66.5,74.0,69.1,64.0,93,80,62,29.93,29.86,0,0,0,0.00
2013-7-8,86.6,76.0,68.5,76.5,71.7,67.4,98,87,69,29.95,29.84,0,0,0,0.22
2013-7-9,81.8,73.6,68.3,75.5,71.2,67.0,97,92,79,29.96,29.78,0,0,0,0.37
2013-7-10,77.0,70.3,65.1,69.8,61.5,55.0,95,75,53,30.00,29.80,0,0,0,0.38
2013-7-11,79.5,70.7,61.1,61.3,56.9,52.6,79,63,43,30.11,30.00,0,0,0,0.00
2013-7-12,82.0,70.8,60.3,61.5,57.3,52.3,85,64,42,30.13,30.04,0,0,0,0.00
2013-7-13,81.8,70.7,62.6,66.7,60.3,54.8,86,70,56,30.13,30.04,0,0,0,0.00
2013-7-14,85.2,74.9,63.6,69.5,65.3,58.1,88,73,52,30.20,30.12,0,0,0,0.00
2013-7-15,89.3,79.4,69.9,74.4,70.5,65.5,92,75,56,30.25,30.17,0,0,0,0.00
2013-7-16,89.8,80.6,72.2,77.3,73.8,70.7,96,81,62,30.24,30.19,0,0,0,0.00
2013-7-17,91.7,80.5,74.6,79.3,74.2,71.5,95,82,58,30.25,30.13,0,0,0,0.38
2013-7-18,89.5,81.6,74.8,76.4,73.2,70.5,89,77,60,30.14,29.84,0,0,0,0.38
2013-7-19,87.8,78.7,70.2,75.7,69.5,62.3,84,74,57,29.84,29.71,0,0,0,0.00
2013-7-20,83.8,72.4,62.3,68.0,63.3,57.1,89,74,51,29.93,29.80,0,0,0,0.00
2013-7-21,77.2,64.0,58.1,67.4,59.8,55.6,97,87,71,29.94,29.88,0,0,0,0.51
2013-7-22,82.7,70.3,61.2,73.3,66.1,60.3,99,87,69,29.88,29.61,0,0,0,0.05
2013-7-23,71.5,65.5,58.8,66.0,57.5,51.6,96,76,60,29.98,29.71,0,0,0,0.07
2013-7-24,70.5,62.6,52.3,56.9,52.7,50.3,94,71,51,30.08,29.98,0,0,0,0.00
2013-7-25,75.8,65.1,57.2,65.6,58.9,50.6,94,81,67,30.05,29.94,0,0,0,0.04
2013-7-26,72.6,64.8,57.9,68.3,60.4,53.1,97,86,62,29.95,29.82,0,0,0,0.02
2013-7-27,59.0,52.2,48.0,52.9,47.9,44.6,93,85,71,29.94,29.87,0,0,0,0.01
2013-7-28,63.7,55.7,48.6,55.3,51.4,47.5,97,86,71,30.02,29.85,0,0,0,0.03
2013-7-29,73.0,61.8,51.2,61.9,55.5,49.5,95,81,63,30.15,30.02,0,0,0,0.00
2013-7-30,73.0,63.6,56.3,63.3,59.6,55.3,97,87,66,30.16,30.06,0,0,0,0.01
2013-7-31,78.7,66.7,61.1,68.6,62.5,57.9,98,87,66,30.07,29.94,0,0,0,0.01
2013-8-1,77.5,67.1,57.6,61.1,57.6,53.4,95,74,47,29.99,29.88,0,0,0,0.00
2013-8-2,78.7,69.1,61.5,65.5,59.5,53.4,95,73,51,29.96,29.80,0,0,0,0.01
2013-8-3,76.5,66.4,57.4,58.8,53.7,50.0,84,65,42,30.13,29.95,0,0,0,0.00
2013-8-4,73.5,65.0,54.1,59.4,55.4,50.9,93,72,53,30.21,30.08,0,0,0,0.00
2013-8-5,70.3,62.3,56.1,63.3,59.4,53.7,98,90,78,30.08,29.84,0,0,0,0.06
2013-8-6,80.7,70.9,63.1,70.8,66.9,62.5,99,88,65,29.86,29.75,0,0,0,0.06
2013-8-7,75.5,69.7,63.4,70.0,64.1,57.3,98,83,67,29.96,29.72,0,0,0,0.00
2013-8-8,77.7,67.9,58.2,64.6,59.2,51.2,92,75,57,30.03,29.96,0,0,0,0.00
2013-8-9,79.1,68.8,60.9,64.2,59.7,54.9,92,74,52,30.05,29.95,0,0,0,0.00
2013-8-10,73.5,64.7,55.2,58.8,54.9,51.8,90,72,50,30.15,30.05,0,0,0,0.00
2013-8-11,68.4,63.3,59.8,66.0,60.0,52.5,97,90,70,30.12,30.02,0,0,0,0.21
2013-8-12,78.1,67.7,62.2,67.1,62.6,56.0,98,85,63,30.02,29.90,0,0,0,0.40
2013-8-13,68.6,60.2,50.3,57.0,50.9,47.0,95,73,53,30.17,29.98,0,0,0,0.00
2013-8-14,72.0,61.2,50.5,56.7,51.6,46.3,94,72,47,30.22,30.11,0,0,0,0.00
2013-8-15,77.5,65.5,57.3,60.2,55.6,51.7,88,72,47,30.14,30.07,0,0,0,0.00
2013-8-16,80.7,68.9,58.5,59.7,54.6,50.4,80,62,38,30.17,30.11,0,0,0,0.00
2013-8-17,80.1,70.5,62.2,63.9,56.2,51.0,75,61,45,30.21,30.13,0,0,0,0.00
2013-8-18,80.3,70.4,59.2,64.1,57.0,53.3,84,64,46,30.18,30.06,0,0,0,0.00
2013-8-19,79.5,69.7,62.1,65.8,61.1,56.7,88,75,55,30.07,29.99,0,0,0,0.00
2013-8-20,83.7,73.4,64.1,68.5,64.4,60.2,93,75,53,30.04,29.96,0,0,0,0.00
2013-8-21,86.3,75.7,67.4,72.9,68.8,64.1,92,80,61,29.98,29.88,0,0,0,0.01
2013-8-22,77.8,70.1,64.1,70.1,67.0,60.8,98,90,68,30.10,29.95,0,0,0,0.48
2013-8-23,79.8,70.0,61.3,63.2,58.5,51.4,88,68,53,30.17,30.09,0,0,0,0.48
2013-9-27,77.3,64.3,54.3,57.5,53.1,49.8,87,69,40,30.11,29.99,0,0,0,0.00
2013-9-28,75.3,61.5,51.2,64.0,55.4,49.8,97,81,63,30.00,29.78,0,0,0,0.39
2013-9-29,67.3,56.2,45.5,52.7,47.5,43.1,98,75,44,30.06,29.94,0,0,0,0.40
2013-9-30,68.8,58.7,49.0,50.8,46.9,43.6,85,66,44,29.98,29.79,0,0,0,0.00
2013-10-1,76.5,64.1,56.4,64.0,57.7,50.7,97,81,62,29.95,29.80,0,0,0,0.00
2013-10-2,73.2,63.2,54.0,51.2,44.3,38.0,77,51,33,30.09,29.94,0,0,0,0.00
2013-10-3,71.0,63.2,56.5,65.7,59.3,44.5,98,88,61,29.94,29.80,0,0,0,0.15
2013-10-4,63.0,60.9,58.0,62.7,60.5,57.6,99,99,98,29.98,29.84,0,0,0,0.11
2013-10-5,68.3,61.2,50.6,68.2,61.0,50.1,100,99,99,29.92,29.72,0,0,0,0.22
2013-10-6,54.4,47.3,40.8,50.0,43.2,38.1,100,86,62,29.75,29.66,0,0,0,0.01
2013-10-7,64.8,52.2,43.4,50.6,44.6,39.5,98,78,48,30.08,29.72,0,0,0,0.04
2013-10-8,72.4,59.8,49.2,51.4,45.6,38.8,77,61,40,30.13,30.05,0,0,0,0.00
2013-10-9,70.3,62.0,53.3,52.5,47.6,42.3,82,60,42,30.17,30.08,0,0,0,0.00
2013-10-10,70.5,59.6,50.2,53.7,48.0,-99.9,85,67,46,30.14,30.01,0,0,0,0.00
2013-10-11,70.0,60.3,52.1,60.4,54.2,49.4,93,81,66,30.01,29.87,0,0,0,0.00
2013-10-12,65.8,58.5,46.1,58.2,49.5,36.8,93,73,49,30.15,29.85,0,0,0,0.00
2013-10-13,60.2,49.5,40.4,42.5,37.7,34.0,92,66,42,30.42,30.15,0,0,0,0.00
2013-10-14,57.9,49.6,43.2,44.8,39.9,34.3,88,70,59,30.42,30.10,0,0,0,0.00
2013-10-15,55.0,49.2,45.5,54.4,47.3,42.3,98,93,86,30.11,29.72,0,0,0,0.50
2013-10-16,48.2,46.1,43.5,47.4,45.1,42.3,98,96,92,29.94,29.75,0,0,0,0.03
2013-10-17,52.7,44.3,38.9,43.0,39.8,36.6,97,85,58,29.92,29.81,0,0,0,0.03
2013-10-18,46.4,42.2,37.4,41.4,38.2,33.9,93,86,69,29.94,29.79,0,0,0,0.00
2013-10-19,50.8,39.3,34.4,40.4,34.9,29.9,95,85,52,29.91,29.72,0,0,0,0.03
2013-10-20,44.9,39.1,32.9,44.1,37.9,31.9,97,95,83,29.84,29.70,0,0,0,0.04
2013-10-21,43.6,34.7,28.4,42.0,29.5,23.2,94,81,68,29.95,29.75,0,0,0,0.01
2013-10-22,43.9,33.7,25.5,31.7,26.8,22.5,91,77,54,30.00,29.93,0,0,0,0.01
2013-10-23,39.8,31.8,24.9,30.4,27.1,23.2,94,83,57,30.05,29.97,0,0,0,0.00
2013-10-24,42.4,33.7,26.1,29.2,26.4,23.6,91,75,54,30.31,30.05,0,0,0,0.00
2013-10-25,49.1,39.3,28.4,31.8,28.3,24.6,87,66,49,30.36,29.88,0,0,0,0.00
2013-10-26,49.7,42.7,36.6,36.8,31.3,27.9,84,64,47,30.06,29.77,0,0,0,0.00
2013-10-27,52.9,41.8,32.6,32.4,29.5,26.4,83,63,41,30.05,29.89,0,0,0,0.00
2013-10-28,43.3,36.3,33.2,31.6,29.6,27.4,88,77,62,30.43,30.05,0,0,0,0.00
2013-10-29,50.2,40.5,33.5,41.0,35.0,27.4,93,81,68,30.42,30.13,0,0,0,0.00
2013-10-30,52.8,47.5,41.6,52.5,46.5,39.7,99,96,89,30.13,29.73,0,0,0,0.02
2013-10-31,57.7,51.4,38.9,57.3,51.1,38.6,99,99,98,29.73,29.26,0,0,0,0.22
2013-11-1,43.1,39.8,36.6,42.2,39.0,35.0,99,97,94,29.76,29.30,0,0,0,0.03
2013-11-2,42.4,37.5,34.0,36.9,35.0,31.6,97,91,77,30.17,29.76,0,0,0,0.03
2013-11-3,46.0,38.8,33.0,38.7,33.9,30.8,96,83,63,30.29,30.17,0,0,0,0.01
2013-11-4,48.6,44.0,39.1,44.4,39.3,35.1,95,83,72,30.18,30.01,0,0,0,0.01
2013-11-5,50.4,46.5,41.1,50.1,45.0,37.6,99,94,85,30.25,29.82,0,0,0,1.48
2013-11-6,52.0,38.5,29.2,51.7,35.8,24.6,99,90,68,30.16,29.71,0,0,0,0.04
2013-11-7,38.0,31.4,27.5,31.3,27.7,24.6,94,86,76,30.26,30.16,0,0,0,0.04
2013-11-8,42.9,34.1,25.8,35.2,29.4,24.6,96,84,69,30.29,29.80,0,0,0,0.00
2013-11-9,48.1,42.4,33.8,40.4,35.4,27.1,92,76,66,30.08,29.74,0,0,0,0.00
2013-11-10,45.5,38.7,33.7,31.5,29.6,27.3,81,70,53,30.33,30.08,0,0,0,0.00
2013-11-11,41.1,28.4,17.6,32.9,23.8,12.9,96,83,70,30.60,30.06,0,0,0,0.01
2013-11-12,26.5,18.8,12.6,17.7,12.8,8.9,92,77,63,30.77,30.58,0,0,0,0.03
2013-11-13,38.6,28.1,17.7,22.9,16.2,9.2,79,62,44,30.59,30.06,0,0,0,0.01
2013-11-14,43.6,36.1,28.1,31.0,25.8,18.5,74,66,57,30.06,29.88,0,0,0,0.01
2013-11-15,52.1,41.8,33.7,39.5,33.5,28.6,86,73,60,29.93,29.84,0,0,0,0.00
2013-11-16,54.5,45.3,35.5,54.0,44.2,33.1,100,96,85,29.84,29.42,0,0,0,0.02
2013-11-17,54.3,46.5,35.0,53.5,45.2,31.6,98,95,87,29.65,29.16,0,0,0,0.02
2013-11-18,34.9,29.8,22.5,32.2,25.4,19.5,90,83,71,30.28,29.64,0,0,0,0.00
2013-11-19,35.2,28.4,20.5,28.3,23.3,17.9,91,81,65,30.39,30.24,0,0,0,0.00
2013-11-20,36.6,32.8,30.5,32.5,29.1,27.3,97,86,71,30.24,30.09,0,0,0,0.01
2013-11-21,38.4,35.5,32.3,37.3,34.6,31.4,98,97,93,30.29,30.11,0,0,0,0.01
2013-11-22,33.3,27.1,21.0,31.6,21.7,12.4,97,81,58,30.50,30.28,0,0,0,0.03
2013-11-23,22.2,13.7,7.3,16.0,6.5,2.6,82,73,57,30.76,30.43,0,0,0,0.03
2013-11-24,23.5,14.4,4.3,8.2,4.6,1.0,92,66,43,30.75,30.28,0,0,0,0.00
2013-11-25,28.7,24.0,18.6,25.3,20.0,7.0,93,85,59,30.28,30.03,0,0,0,0.00
2013-11-26,30.4,21.7,8.7,25.5,15.3,3.1,90,76,60,30.25,30.04,0,0,0,0.00
2013-11-27,24.3,15.3,6.8,13.9,8.9,2.9,90,76,58,30.34,30.24,0,0,0,0.00
2013-11-28,28.2,21.7,17.7,18.0,14.2,11.2,78,72,62,30.54,30.17,0,0,0,0.00
2013-11-29,26.5,21.2,14.5,20.4,16.0,11.7,91,80,69,30.64,30.35,0,0,0,0.00
2013-11-30,41.0,31.9,25.7,31.2,26.2,20.2,87,79,65,30.36,30.06,0,0,0,0.00
2013-12-1,36.2,31.1,25.6,27.4,25.5,23.3,91,80,67,30.16,29.99,0,0,0,0.00
2013-12-2,34.9,30.5,26.3,31.9,28.2,24.0,97,91,84,29.99,29.74,0,0,0,0.00
2013-12-3,34.7,32.6,31.0,34.2,32.0,30.2,100,98,97,29.77,29.68,0,0,0,0.01
2013-12-4,45.4,36.0,28.9,45.1,35.7,28.4,100,99,98,29.77,29.44,0,0,0,0.01
2013-12-5,28.7,16.2,8.7,28.2,13.0,5.4,100,87,79,30.32,29.63,0,0,0,0.00
2013-12-6,13.9,6.8,2.2,7.4,2.8,-0.8,89,83,72,30.61,30.30,0,0,0,0.00
2013-12-7,12.2,3.6,-2.8,3.5,-1.4,-5.7,89,79,65,30.76,30.61,0,0,0,0.00
2013-12-8,13.0,8.8,3.6,11.1,5.0,-2.9,92,84,73,30.67,30.03,0,0,0,0.00
2013-12-9,14.1,5.4,-5.4,9.7,1.4,-9.0,100,84,69,30.21,30.00,0,0,0,0.00
2013-12-10,14.2,5.4,-5.7,9.0,0.9,-9.3,90,82,71,30.32,29.94,0,0,0,0.00
2013-12-11,11.1,2.7,-5.6,9.0,-2.4,-10.8,91,79,65,30.57,30.30,0,0,0,0.00
2013-12-12,17.7,7.8,-6.5,11.2,2.7,-10.6,86,79,66,30.52,30.24,0,0,0,0.00
2013-12-13,19.9,15.0,11.9,14.3,11.4,8.6,89,85,76,30.26,30.18,0,0,0,0.00
2013-12-14,19.3,15.8,12.4,17.1,13.8,9.4,93,92,88,30.24,29.98,0,0,0,0.00
2013-12-15,14.3,6.1,-2.1,11.7,0.4,-8.6,91,77,62,30.19,29.97,0,0,0,0.00
2013-12-16,11.3,4.8,-5.3,9.4,0.6,-10.1,92,82,72,30.21,30.06,0,0,0,0.00
2013-12-17,31.2,22.2,10.8,26.6,18.4,8.9,100,86,69,30.09,29.95,0,0,0,0.01
2013-12-18,33.4,21.8,9.0,28.4,15.6,5.4,95,77,57,30.11,29.78,0,0,0,0.01
2013-12-19,34.2,24.6,17.0,29.3,21.9,15.6,95,89,82,30.00,29.81,0,0,0,0.00
2013-12-20,20.2,18.3,16.3,19.0,17.0,14.6,95,94,93,29.95,29.85,0,0,0,0.00
2013-12-21,23.1,21.3,19.6,22.0,20.1,18.4,96,95,94,29.93,29.79,0,0,0,0.00
2013-12-22,22.7,20.6,17.0,21.4,19.4,15.6,96,95,94,30.15,29.77,0,0,0,0.00
2013-12-23,18.8,7.5,-3.9,17.6,5.3,-6.8,100,91,87,30.48,30.14,0,0,0,0.00
2013-12-24,9.8,3.5,-5.3,7.1,0.9,-8.4,91,89,86,30.59,30.33,0,0,0,0.00
2013-12-25,20.0,14.8,5.5,18.8,13.2,3.4,95,93,91,30.34,30.11,0,0,0,0.00
2013-12-26,23.2,17.0,8.5,21.9,15.3,6.4,95,93,91,30.25,30.13,0,0,0,0.00
2013-12-27,33.7,26.1,19.4,31.3,24.3,18.0,95,93,90,30.27,30.02,0,0,0,0.02
2013-12-28,39.5,33.9,27.4,32.4,29.9,26.2,96,85,74,30.06,29.75,0,0,0,0.02
2013-12-29,35.2,14.3,-8.9,30.6,11.0,-14.2,95,86,77,30.25,29.72,0,0,0,0.00
2013-12-30,1.1,-6.0,-13.4,-4.8,-11.5,-18.2,92,77,62,30.38,30.24,0,0,0,0.00
2013-12-31,4.2,0.2,-4.5,0.4,-3.5,-9.4,88,84,77,30.43,30.26,0,0,0,0.00
2014-1-1,5.1,0.1,-4.9,-0.6,-6.1,-10.3,79,74,67,30.47,30.40,0,0,0,0.00
2014-1-2,8.2,3.0,-2.3,1.1,-2.7,-7.5,87,77,63,30.50,30.35,0,0,0,0.00